Spokane, WA
on Monday, November 5, 2012

Monday
Previous Day Next Day
Daily Summary
 ActualAverageRecord
Temperature
Mean Temperature °F 40°F  
Max Temperature 57°F 47°F 64°F (1934)
Min Temperature 41°F 33°F 11°F (2003)
Degree Days
Heating Degree Days 16 25  
Month to date heating degree days 77 123  
Since 1 July heating degree days 683 911  
Cooling Degree Days 0 0  
Month to date cooling degree days 0 0  
Year to date cooling degree days 535 450  
Moisture
Dew Point 48°F   
Average Humidity 87    
Maximum Humidity 96    
Minimum Humidity 77    
Precipitation
Precipitation 0.00 in 0.07 in 0.82 in (1913)
Month to date precipitation 0.28 0.32  
Year to date precipitation 15.78 12.28  
Snow
Snow 0.00 in 0.10 in 1.90 in (2013)
Month to date snowfall 0.0 0.4  
Since 1 July snowfall T 0.5  
Since 1 September snowfall T 0.5  
Snow Depth 0.00 in   
Wind
Wind Speed 10 mph   
Max Wind Speed 25 mph   
Max Gust Speed 32 mph   
Visibility 10 miles   
Events     

Key: T is trace of precipitation, MM is missing value
Source: NWS Daily Summary
Time(PST)TemperatureDew PointHumidity Pressure Visibility Wind DirectionWind SpeedGust SpeedPrecipitationEvents Conditions
12:53 AM 53.1°F 48.0°F 83% 30.25 in 10.0 miles South 9.2 mph - N/A   Overcast
1:53 AM 54.0°F 48.9°F 83% 30.21 in 10.0 miles South 12.7 mph - N/A   Overcast
2:53 AM 53.1°F 48.9°F 86% 30.20 in 10.0 miles SSW 18.4 mph 24.2 mph N/A   Overcast
3:53 AM 53.1°F 48.9°F 86% 30.17 in 10.0 miles SSW 20.7 mph 27.6 mph N/A   Mostly Cloudy
4:53 AM 53.1°F 48.9°F 86% 30.17 in 10.0 miles SSW 20.7 mph - N/A   Mostly Cloudy
5:40 AM 53.6°F 50.0°F 88% 30.17 in 10.0 miles SSW 23.0 mph 29.9 mph N/A   Overcast
5:53 AM 53.1°F 50.0°F 89% 30.17 in 10.0 miles SSW 21.9 mph 28.8 mph N/A   Overcast
6:33 AM 53.6°F 50.0°F 88% 30.17 in 10.0 miles SSW 23.0 mph 32.2 mph N/A   Overcast
6:53 AM 53.1°F 51.1°F 93% 30.19 in 10.0 miles SSW 19.6 mph - N/A   Overcast
7:53 AM 54.0°F 51.1°F 90% 30.22 in 10.0 miles SSW 15.0 mph - N/A   Overcast
8:53 AM 54.0°F 51.1°F 90% 30.24 in 10.0 miles SSW 15.0 mph - N/A   Mostly Cloudy
9:53 AM 55.0°F 51.1°F 86% 30.25 in 10.0 miles SSW 10.4 mph - N/A   Overcast
10:53 AM 55.9°F 51.1°F 84% 30.25 in 10.0 miles SW 13.8 mph - N/A   Mostly Cloudy
11:53 AM 55.9°F 51.1°F 84% 30.26 in 10.0 miles SW 6.9 mph - N/A   Overcast
12:53 PM 57.0°F 51.1°F 81% 30.25 in 10.0 miles SW 12.7 mph - N/A   Mostly Cloudy
1:53 PM 57.0°F 50.0°F 77% 30.25 in 10.0 miles SSW 8.1 mph - N/A   Mostly Cloudy
2:53 PM 55.9°F 48.0°F 75% 30.25 in 10.0 miles SW 6.9 mph - N/A   Mostly Cloudy
3:53 PM 54.0°F 48.0°F 80% 30.26 in 10.0 miles SW 5.8 mph - N/A   Mostly Cloudy
4:53 PM 52.0°F 46.0°F 80% 30.25 in 10.0 miles Calm Calm - N/A   Mostly Cloudy
5:53 PM 50.0°F 45.0°F 83% 30.24 in 10.0 miles South 3.5 mph - N/A   Mostly Cloudy
6:53 PM 48.0°F 44.1°F 86% 30.24 in 10.0 miles SSW 3.5 mph - N/A   Scattered Clouds
7:53 PM 46.0°F 43.0°F 89% 30.25 in 10.0 miles Calm Calm - N/A   Partly Cloudy
8:53 PM 46.9°F 44.1°F 90% 30.25 in 10.0 miles South 4.6 mph - N/A   Partly Cloudy
9:53 PM 44.1°F 43.0°F 96% 30.23 in 10.0 miles Calm Calm - N/A   Clear
10:53 PM 43.0°F 41.0°F 93% 30.22 in 10.0 miles South 4.6 mph - N/A   Scattered Clouds
11:53 PM 42.1°F 39.9°F 92% 30.22 in 10.0 miles Calm Calm - N/A   Scattered Clouds
Moon Phase
Nov. 05 Nov. 06 Nov. 13 Nov. 20 Nov. 28
Sunrise:06:41 AM (PST) Moon Rise:10:08 PM (PST)11/5
Sunset:04:25 PM (PST) Moon Set:12:03 PM (PST)11/5

Copyright © 2014 The Weather Underground, Inc.